Location: Strawberry
(45.6646°N, 111.9596°W)
Time: 15:22:59
(UTC+00:00)

Transit 4A - Visible Passes

Search period start: 03 October 2022 00:00
Search period end: 13 October 2022 00:00
Orbit: 869 x 974 km, 66.8° (Epoch: 03 October)

Date Brightness Start Highest point End Pass type
(mag) Time Alt. Az. Time Alt. Az. Time Alt. Az.
03 Oct 10.5 08:53:20 11° NNW 08:53:20 11° NNW 08:54:40 10° N visible
03 Oct 9.9 12:26:25 10° NNW 12:31:05 24° NE 12:35:42 10° E visible
04 Oct 10.5 10:50:33 10° N 10:52:13 11° NNE 10:53:52 10° NNE visible
04 Oct 9.6 12:35:28 10° NNW 12:40:38 31° NE 12:45:45 10° ESE visible
05 Oct 10.4 10:59:20 10° N 11:02:03 13° NNE 11:04:45 10° NE visible
05 Oct 9.1 12:44:34 10° NNW 12:50:07 41° NE 12:55:35 10° ESE visible
06 Oct 10.3 11:08:15 10° N 11:11:49 16° NNE 11:15:20 10° ENE visible
06 Oct 8.5 12:53:43 10° NNW 12:59:30 56° NE 13:05:12 10° SE visible
07 Oct 10.1 11:17:13 10° NNW 11:21:30 20° NE 11:25:43 10° E visible
08 Oct 10.6 09:42:03 10° N 09:42:28 10° NNE 09:42:52 10° NNE visible
08 Oct 9.8 11:26:15 10° NNW 11:31:07 26° NE 11:35:54 10° E visible
09 Oct 10.5 09:50:17 10° N 09:52:20 12° NNE 09:54:21 10° NE visible
09 Oct 9.3 11:35:20 10° NNW 11:40:38 34° NE 11:45:52 10° ESE visible
10 Oct 10.4 09:59:08 10° N 10:02:09 14° NNE 10:05:08 10° NE visible
10 Oct 8.8 11:44:27 10° NNW 11:50:05 45° NE 11:55:38 10° ESE visible
11 Oct 9.1 02:53:35 10° S 02:56:16 24° SSE 02:56:16 24° SSE visible
11 Oct 10.4 04:39:37 10° WSW 04:39:55 11° WSW 04:39:55 11° WSW visible
11 Oct 10.2 10:08:04 10° N 10:11:53 17° NNE 10:15:39 10° ENE visible
11 Oct 8.2 11:53:37 10° NNW 11:59:26 64° NE 12:05:12 10° SE visible
12 Oct 8.1 03:02:19 10° SSW 03:07:19 49° SSE 03:07:19 49° SSE visible
12 Oct 10.1 04:49:26 10° WSW 04:50:58 17° W 04:50:58 17° W visible
12 Oct 9.9 10:17:04 10° NNW 10:21:33 22° NE 10:25:59 10° E visible
12 Oct 7.7 12:02:50 10° NNW 12:08:43 89° ENE 12:14:32 10° SSE visible
